This demonstration page uses our WeatherBlox Daily Observations layout. Learn more.

Left ArrowRight Arrow

36.19886, -115.1175

Hourly Observations for December 25, 2015

Temp ( °F °C ) Dew Point ( °F °C ) Humidity (%) Winds ( mph kmh ) Pressure ( in mb ) Visibility ( mi km ) Precip ( " mm )
12:05 am 00:05 Cloudy with Light Rain 41 5 32 0 70 70 NW 30 48 29.80 1009 10 16 0.00 0.03
12:29 am 00:29 Cloudy with Light Rain 38 3.3 33 0.6 83 83 NW 28 44 29.85 1011 10 16 0.00 0.03
12:53 am 00:53 Cloudy with Light Rain 37 2.8 33 0.6 86 86 NW 24 39 29.87 1011 10 16 0.01 0.25
1:06 am 01:06 Cloudy with Light Rain 37 3 34 1 87 87 NNW 23 37 29.85 1011 10 16 0.00 0.00
1:53 am 01:53 Cloudy 39 3.9 32 0 76 76 NW 22 35 29.87 1011 10 16 0.01 0.25
2:53 am 02:53 Cloudy 39 3.9 31 -0.6 73 73 ENE 6 9 29.87 1011 10 16 0.00 0.00
3:53 am 03:53 Clear 39 3.9 30 -1.1 70 70 Calm 29.88 1012 10 16 0.00 0.00
4:53 am 04:53 Clear 40 4.4 25 -3.9 55 55 NNW 20 31 29.89 1012 10 16 0.00 0.00
5:53 am 05:53 Clear 39 3.9 23 -5 53 53 NNW 14 22 29.93 1014 10 16 0.00 0.00
6:53 am 06:53 Sunny 37 2.8 22 -5.6 54 54 NNW 9 15 29.97 1015 10 16 0.00 0.00
7:53 am 07:53 Sunny 38 3.3 20 -6.7 48 48 NNW 12 19 30.01 1016 10 16 0.00 0.00
8:53 am 08:53 Sunny 42 5.6 20 -6.7 41 41 NNW 15 24 30.03 1017 10 16 0.00 0.00
9:53 am 09:53 Sunny 44 6.7 18 -7.8 35 35 N 20 31 30.03 1017 10 16 0.00 0.00
10:53 am 10:53 Sunny 46 7.8 14 -10 27 27 NNW 22 35 30.02 1017 10 16 0.00 0.00
11:53 am 11:53 Sunny 46 7.8 14 -10 27 27 NNW 23 37 30.01 1016 10 16 0.00 0.00
12:53 pm 12:53 Sunny 47 8.3 13 -10.6 25 25 NNW 22 35 30.02 1017 10 16 0.00 0.00
1:53 pm 13:53 Sunny 48 8.9 16 -8.9 28 28 NNW 22 35 30.02 1017 10 16 0.00 0.00
2:53 pm 14:53 Sunny 47 8.3 16 -8.9 29 29 NNW 20 31 30.02 1017 10 16 0.00 0.00
3:53 pm 15:53 Sunny 47 8.3 12 -11.1 24 24 NNW 17 28 30.05 1018 10 16 0.00 0.00
4:53 pm 16:53 Mostly Cloudy 46 7.8 13 -10.6 26 26 NNW 16 26 30.07 1018 10 16 0.00 0.00
5:53 pm 17:53 Mostly Clear 44 6.7 13 -10.6 28 28 NW 16 26 30.08 1019 10 16 0.00 0.00
6:53 pm 18:53 Mostly Clear 43 6.1 14 -10 31 31 NW 15 24 30.11 1020 10 16 0.00 0.00
7:53 pm 19:53 Mostly Cloudy 42 5.6 18 -7.8 38 38 NNW 18 30 30.13 1020 10 16 0.00 0.00
8:53 pm 20:53 Mostly Cloudy 42 5.6 18 -7.8 38 38 NNW 12 19 30.16 1021 10 16 0.00 0.00
9:53 pm 21:53 Clear 41 5 18 -7.8 39 39 N 12 19 30.18 1022 10 16 0.00 0.00
10:53 pm 22:53 Clear 41 5 15 -9.4 35 35 NNW 16 26 30.19 1022 10 16 0.00 0.00
11:53 pm 23:53 Clear 41 5 12 -11.1 30 30 NNW 15 24 30.20 1023 10 16 0.00 0.00

Powered by AerisWeather